Location: Berville
(49.1893°N, 2.0748°E)
Time: 09:07:12
(UTC+00:00)

Cosmos 1943 Rocket - Visible Passes

Search period start: 16 September 2024 00:00
Search period end: 26 September 2024 00:00
Orbit: 813 x 841 km, 71.0° (Epoch: 15 September)

Date Brightness Start Highest point End Pass type
(mag) Time Alt. Az. Time Alt. Az. Time Alt. Az.
16 Sep 2.2 19:06:33 10° NNW 19:12:05 81° WSW 19:17:37 10° SSE visible
16 Sep 4.7 20:52:17 10° WNW 20:54:55 14° W 20:57:31 10° SW visible
17 Sep 2.2 18:47:04 10° NNW 18:52:38 90° NE 18:58:10 10° SSE visible
17 Sep 4.7 20:32:24 10° WNW 20:35:33 16° W 20:38:42 10° SW visible
18 Sep 2.2 18:27:37 10° NNW 18:33:10 81° ENE 18:38:43 10° SSE visible
18 Sep 4.6 20:12:37 10° WNW 20:16:12 18° W 20:19:47 10° SW visible
19 Sep 4.5 19:52:53 10° NW 19:56:49 20° W 20:00:46 10° SSW visible
20 Sep 4.4 19:33:13 10° NW 19:37:28 23° WSW 19:41:42 10° SSW visible
21 Sep 4.3 19:13:35 10° NW 19:18:04 26° WSW 19:22:33 10° SSW visible
22 Sep 4.2 18:53:58 10° NW 18:58:41 29° WSW 19:03:23 10° SSW visible
23 Sep 4.0 18:34:23 10° NW 18:39:17 33° WSW 18:44:11 10° SSW visible
24 Sep 3.8 18:14:50 10° NW 18:19:52 37° WSW 18:24:55 10° S visible
